Back to catalog

STARLINK-11689

AliveCommunicationsVLEO
NORAD 64241·PAYLOAD·🇺🇸 United States

Launched Jun 3, 2025 from Cape Canaveral Space Force Station

Loading…

Next Passes (next 24 hours)

TLE

FreshSource: CelesTrak SupGP

Epoch: Sep 14, 2026, 15:01 UTC

1 64241C 25119J   26257.62618056  .00030674  00000+0  23841-3 0  2578
2 64241  43.0001 150.2486 0001685 252.6178 326.1168 15.70806119    10

Track STARLINK-11689 in real time with AllMySat

Download on the App Store